Location: Goll?ig?dem
(16.6773°N, 80.7332°E)
Time: 17:13:01
(UTC+00:00)

Cosmos 2195 Rocket - Pass Details

Date: 19 May 2025
Orbit: 947 x 993 km, 82.9° (Epoch: 12 June)

Event Time Altitude Azimuth Distance (km) Brightness Sun altitude
Rises 23:03:31 0° 185° (S) 3,687 7.2 -14.3°
Reaches altitude 10° 23:06:02 10° 186° (S) 2,735 6.5 -13.7°
Maximum altitude 23:12:19 82° 274° (W) 990 4.5 -12.4°
Drops below altitude 10° 23:18:32 10° 2° (N) 2,709 7.2 -11.0°
Sets 23:21:02 0° 3° (N) 3,650 7.9 -10.5°
